sat.trackr.live / text

‹ back to catalog

STARLINK-36693

NORAD 67742 · 2026-026X

PAYLOAD ACTIVE UNKNOWN

§ Identity

Operator
Country
US
Launch date
2026-02-11
Launch site
AFWTR
Launch vehicle
Mass (kg)
RCS (m²)

Purposes: comms

External: N2YO · Heavens-Above · Gunter

§ Orbital elements

Epoch: 2026-05-25T03:02:22.273152Z

Period
93.91 min
Inclination
97.2844°
Eccentricity
0.0001588
Mean motion
15.33441204 rev/d
Perigee alt
464.5 km
Apogee alt
466.6 km
Semi-major
6,843.7 km
B*
2.5091e-4
RAAN
198.7047°
Arg perigee
91.1903°
Mean anomaly
268.9521°
Rev number
1,584

§ Raw data

STARLINK-366931 67742U 26026X   26145.12664668  .00008033  00000+0  25091-3 0  99922 67742  97.2844 198.7047 0001588  91.1903 268.9521 15.33441204 15841

JSON: /api/v1/satellites/67742 · /tle

For live sub-satellite position, see the globe view (requires WebGL).

§ Visibility from observer

Set your observer location to see the next 7 days of passes ≥ 10°. The values pass through the URL so the page stays shareable.

No JS? Fill the form by hand. The geolocation button needs JavaScript.